Probability
1 0 1 2 3 5 6 6 5 5 6 6 3 2 1 1 0 1 0 0 0 1 2 2 1 2 4 4 4 5 6 8 9 8 4 1 2 3 5 6 6 5 6
2 1 0 1 2 4 5 6 6 6 8 8 6 4 2 1 1 2 1 1 1 2 3 2 2 3 5 6 6 6 8 9 11 10 7 4 3 3 5 6 6 7 7
3 2 1 1 2 3 5 7 8 10 10 9 9 7 6 5 5 5 3 3 3 3 3 3 3 5 6 8 8 8 9 10 11 11 10 8 6 5 5 5 6 7 8
4 3 3 2 2 3 5 8 12 14 13 11 9 9 9 9 9 8 5 4 5 4 4 5 6 7 8 9 9 9 10 11 10 10 10 10 9 7 6 5 5 7 8
5 4 3 3 3 5 7 10 13 16 15 12 11 10 10 10 10 9 8 7 7 6 6 6 7 8 9 10 11 12 13 12 12 11 10 10 9 9 9 8 7 8 7
7 6 5 5 6 7 9 11 14 16 16 15 14 13 12 11 10 9 8 8 8 7 6 6 6 6 7 9 11 14 15 15 14 12 10 10 10 10 11 10 8 7 7
12 10 9 10 9 9 10 12 14 16 17 16 15 14 14 13 10 7 6 7 7 6 4 3 2 3 5 6 9 12 14 15 15 13 11 10 9 10 11 11 9 7 7
17 15 14 13 11 10 11 11 14 16 16 15 13 12 11 10 8 5 4 4 5 4 2 2 1 2 3 4 5 8 11 13 13 13 11 10 9 8 9 10 9 8 7
17 16 15 13 12 11 13 13 13 14 14 13 11 9 8 8 6 4 3 3 4 2 1 2 3 3 3 3 4 5 7 9 10 10 10 9 7 6 6 7 8 7 7
13 13 13 11 11 12 13 14 12 11 12 12 11 9 8 7 6 4 3 3 4 3 3 3 4 5 4 4 5 6 6 7 8 8 9 9 7 5 5 5 6 6 6
12 13 13 11 11 10 10 12 11 10 10 12 12 11 9 8 6 5 5 6 5 5 5 5 6 6 4 5 6 6 5 6 7 8 10 11 9 8 7 6 6 7 8
13 14 14 12 10 8 8 11 11 9 8 10 12 12 9 7 7 7 7 7 7 6 6 7 7 7 6 6 7 6 5 6 8 10 12 12 12 12 11 11 9 10 11
14 15 14 13 10 7 7 10 11 9 8 9 12 12 10 8 7 8 7 7 8 7 7 8 9 10 10 10 10 9 7 7 8 10 12 12 13 13 15 15 14 13 14
17 17 15 14 13 10 9 9 10 9 9 10 12 13 13 12 11 10 10 10 11 11 11 12 12 13 13 14 14 12 9 8 8 8 10 11 12 13 14 16 16 16 16
18 17 15 14 14 12 12 12 11 11 11 12 13 14 15 15 15 14 15 16 16 16 16 16 15 14 14 14 14 12 10 10 9 9 10 11 11 11 11 12 14 16 17
17 16 13 12 12 11 12 14 14 13 14 14 15 15 15 15 15 15 17 18 18 17 17 17 16 14 13 11 9 8 10 11 11 11 12 11 10 8 8 7 7 9 12
15 14 12 11 10 9 10 13 14 14 14 15 15 15 15 15 13 13 14 15 15 14 14 15 16 15 12 9 5 4 7 10 11 12 12 11 8 8 8 7 5 6 7
15 14 12 10 9 8 9 13 13 12 12 13 13 14 16 16 14 12 11 12 12 11 12 12 14 14 11 6 2 2 6 10 12 12 12 11 9 9 10 10 10 10 10
16 15 12 10 9 9 11 14 14 12 12 12 12 13 15 15 15 13 11 11 11 11 11 11 11 12 9 6 2 3 7 11 12 12 11 10 10 8 8 11 14 14 13
16 16 14 13 12 14 16 16 15 13 12 12 12 12 13 15 14 13 12 11 10 11 11 11 11 11 10 6 3 3 8 10 10 10 9 8 7 6 6 9 13 13 12
15 16 16 15 17 20 21 19 16 13 12 13 13 12 12 13 13 13 12 10 10 11 12 12 12 11 10 7 4 4 7 8 8 8 8 6 5 3 3 5 8 9 8
16 16 16 17 20 22 23 21 18 16 14 13 13 13 13 13 13 12 11 10 10 10 10 11 11 10 8 7 4 3 4 5 6 8 8 6 4 1 1 3 4 5 4
16 16 17 18 19 19 19 20 19 17 15 14 13 13 13 12 12 11 10 9 9 9 9 10 9 7 6 6 5 3 3 3 5 7 7 5 3 1 1 2 3 3 4
14 15 16 18 18 16 16 17 18 17 15 14 13 14 13 12 11 10 8 8 8 7 9 10 8 5 4 5 5 5 5 4 5 6 6 5 4 3 3 3 4 4 5
13 14 15 16 16 14 13 14 15 16 15 13 13 13 12 11 11 9 6 5 5 5 5 6 5 3 1 2 3 4 5 5 5 6 6 6 6 6 6 6 6 6 6
13 13 14 14 13 12 12 12 13 15 14 13 12 12 12 11 9 7 4 3 2 2 2 2 2 1 0 0 1 1 2 4 4 5 6 6 6 6 6 6 6 7 7
Wind_Speed
4 4 4 4 4 4 3 2 1 1 1 0 1 1 1 0 1 0 1 1 1 1 1 1 1 2 2 1 1 2 2 1 1 1 1 1 2 1 1 1 1 2 2
5 5 4 4 5 5 4 3 3 2 2 1 0 0 0 0 1 1 1 0 1 1 1 1 1 2 1 2 2 2 1 1 2 1 1 2 3 2 1 2 2 2 2
5 5 5 5 5 4 4 3 3 3 2 1 1 1 1 1 0 0 1 0 1 1 1 1 1 1 2 2 3 3 3 1 1 1 1 1 0 0 2 2 1 1 1
4 5 5 4 4 4 4 3 3 3 3 2 1 1 1 1 0 0 1 1 1 1 1 1 1 2 2 1 3 3 2 2 2 2 1 1 1 1 1 2 2 2 2
5 4 4 4 3 3 3 3 3 3 3 3 2 2 1 1 0 0 1 1 1 1 1 1 1 1 2 1 2 2 3 3 3 2 2 2 2 3 2 2 1 2 2
5 4 4 3 3 3 3 3 3 3 3 3 2 2 1 1 1 1 1 1 1 1 1 1 1 1 1 1 2 2 3 2 2 2 2 2 2 2 2 2 3 2 2
4 4 4 4 3 3 3 3 4 3 3 3 2 2 1 1 1 1 0 1 1 1 1 1 1 1 1 1 1 1 1 2 2 3 2 2 2 2 2 3 3 2 2
4 4 4 4 3 3 3 3 4 3 3 3 2 2 1 1 0 0 1 1 1 1 2 1 1 1 1 0 0 1 1 1 2 2 2 2 2 2 3 3 3 3 3
4 4 3 4 3 3 3 3 4 4 4 3 3 2 2 1 0 0 1 1 1 1 1 1 1 1 0 0 1 0 1 1 2 2 2 2 2 2 2 2 3 4 4
4 4 4 3 3 3 3 3 3 4 3 3 2 2 2 1 1 1 0 1 1 1 1 1 0 0 0 1 1 1 1 1 1 1 1 2 2 1 2 3 3 3 4
4 4 4 4 4 3 4 4 4 3 3 2 2 1 1 1 1 1 1 1 1 1 1 1 1 1 1 1 1 1 0 1 1 1 1 2 2 2 2 2 3 3 3
4 4 5 4 4 4 3 3 3 3 2 2 2 2 1 1 1 1 1 1 1 1 1 1 1 1 1 1 1 2 1 1 2 2 2 2 2 2 3 3 3 3 3
4 4 4 4 4 3 3 2 2 2 2 2 2 2 1 1 1 1 1 1 1 1 1 1 2 2 1 2 2 2 2 2 2 2 2 2 3 3 3 4 4 4 4
4 4 4 4 3 3 3 2 2 1 2 1 1 1 1 1 0 0 1 1 2 2 2 2 1 1 1 2 2 2 3 3 2 2 3 3 3 3 4 4 4 4 4
4 3 3 3 3 3 3 2 2 2 2 1 1 1 1 1 0 0 0 1 1 1 1 1 1 1 1 2 2 3 3 2 2 2 2 2 2 2 3 3 3 3 4
3 3 3 3 3 3 2 3 2 2 2 1 1 1 1 1 1 0 0 0 1 1 1 1 2 2 1 3 3 3 2 2 2 2 2 2 2 2 2 3 3 3 4
3 3 3 2 2 2 2 2 2 2 2 1 1 1 1 1 1 1 1 1 1 1 1 2 2 1 2 3 2 3 3 3 2 2 3 3 1 2 3 3 3 3 3
2 2 2 2 2 2 2 2 2 1 1 1 1 1 1 1 1 1 1 1 1 1 1 2 2 2 2 2 2 4 4 3 3 2 2 2 2 2 3 3 3 4 3
2 2 1 1 2 1 2 2 2 1 1 1 0 1 1 1 1 1 1 2 2 2 2 1 1 2 1 2 2 4 3 2 2 2 1 2 2 2 3 4 4 4 3
3 2 2 2 2 1 1 1 1 1 1 1 1 1 2 2 2 2 2 1 2 2 2 2 2 2 2 1 2 4 3 2 2 1 1 1 3 3 3 4 4 4 4
4 3 3 3 3 1 1 0 0 1 1 1 1 1 1 2 2 1 2 2 2 2 2 2 2 2 1 0 0 2 3 2 2 2 1 1 2 1 3 4 4 4 5
4 4 3 3 2 1 0 0 0 1 1 1 1 1 1 2 1 1 2 2 2 2 2 2 2 1 0 0 0 1 2 4 3 2 2 0 1 1 2 3 4 5 5
3 3 3 3 2 1 1 1 1 1 1 1 1 1 1 1 1 2 2 2 2 2 2 2 1 1 0 1 1 2 2 3 3 2 1 1 2 4 3 3 4 4 4
2 2 2 2 2 2 1 1 1 1 1 1 1 1 2 2 1 2 2 2 2 2 2 2 2 1 1 1 1 1 1 2 2 2 2 4 5 4 3 3 4 4 3
2 2 1 1 1 1 1 1 1 1 1 1 2 2 2 1 2 1 1 2 1 2 3 2 2 1 1 2 3 3 2 2 2 3 2 1 0 1 1 1 2 2 2
2 1 1 0 1 0 1 1 2 2 2 2 2 2 2 1 2 1 1 1 1 1 1 2 3 1 1 1 1 2 4 4 4 3 1 2 2 2 2 2 2 2 2
Wind_Direction
159 160 171 176 175 174 174 176 178 147 185 191 208 172 143 83 76 61 56 355 322 291 255 254 178 222 202 206 199 204 193 189 157 181 174 176 177 172 183 202 194 186 193
164 166 175 179 185 186 189 184 187 178 194 173 199 198 240 130 98 17 63 351 347 312 240 235 224 215 189 186 194 196 218 197 175 217 216 193 174 174 180 186 188 206 205
171 168 175 181 189 193 194 193 192 185 195 201 191 153 171 227 150 135 83 29 9 337 325 294 257 226 225 195 200 202 206 211 203 215 263 263 204 98 164 181 191 205 228
174 171 174 181 185 191 191 192 188 186 186 193 201 203 234 277 341 328 60 27 20 346 321 290 262 253 252 209 223 208 215 212 211 195 240 306 355 256 198 192 180 190 219
173 173 173 176 181 178 179 175 177 183 179 189 191 220 253 273 304 345 41 317 43 6 356 331 300 268 259 245 250 228 227 223 231 228 202 194 203 236 244 238 227 213 216
167 164 158 157 160 155 156 158 161 172 174 177 180 203 216 256 303 312 350 328 47 37 31 347 321 291 284 253 243 240 224 231 241 248 236 228 229 225 238 245 245 255 255
160 160 160 156 157 151 146 144 145 152 158 160 169 185 194 205 214 271 314 318 345 18 33 0 346 316 312 290 261 221 240 228 230 238 239 251 257 251 255 246 250 259 254
143 153 162 162 161 154 149 149 151 158 162 161 161 160 175 209 187 248 310 333 338 9 28 23 30 7 328 302 201 224 215 212 226 234 246 254 260 256 246 248 248 254 250
142 146 154 163 160 158 154 158 162 164 166 168 170 167 175 209 206 208 266 315 343 342 12 360 44 47 6 302 231 213 224 214 222 220 213 241 248 246 246 243 246 255 258
144 140 142 141 144 149 147 154 160 167 169 169 185 175 183 191 200 238 284 324 320 322 328 336 336 139 189 212 237 216 210 225 221 245 249 255 250 250 246 243 244 249 255
135 135 138 133 128 127 140 145 146 154 161 167 179 189 188 189 197 214 235 251 266 272 274 291 283 253 221 209 211 250 253 256 267 267 242 254 269 262 250 249 252 254 253
128 128 130 132 130 124 114 115 127 140 152 160 169 168 169 179 208 209 235 242 252 258 258 279 273 259 230 211 213 235 236 243 251 259 261 259 250 252 259 256 251 253 252
124 125 124 128 126 120 111 107 114 122 135 153 163 157 167 183 209 232 258 241 241 267 275 269 265 260 244 226 228 238 240 239 249 256 256 260 256 254 255 258 255 252 246
135 126 126 125 121 113 99 86 76 84 108 121 133 136 150 177 226 252 260 255 249 253 263 262 266 262 271 270 252 235 237 241 245 251 257 257 259 258 259 254 254 253 249
137 129 129 119 119 107 99 85 67 60 65 81 79 74 62 62 50 338 283 273 266 251 248 257 264 247 244 293 292 254 234 237 246 250 257 256 280 309 295 291 271 258 254
143 138 136 122 119 116 107 95 81 79 81 68 50 53 51 40 20 7 357 339 343 332 304 277 279 288 326 23 356 308 264 248 250 260 265 252 237 262 264 293 304 295 270
159 156 146 134 132 128 120 116 103 99 94 79 50 34 38 37 14 0 2 345 337 337 331 314 299 295 6 21 352 313 276 260 262 267 274 274 285 278 269 254 245 262 286
152 146 143 138 136 126 128 128 119 115 112 90 48 19 327 324 316 313 322 296 280 288 294 305 305 304 357 6 332 301 262 263 259 259 269 278 281 296 291 271 263 261 257
114 119 117 102 101 111 119 133 135 132 136 128 208 283 279 278 276 270 279 288 286 278 270 280 300 300 326 359 331 297 267 262 257 263 282 296 282 348 310 269 269 274 274
93 95 94 87 78 69 103 145 155 150 170 193 214 239 262 264 264 268 271 270 267 269 270 272 277 286 303 357 333 294 280 277 264 250 238 35 349 355 317 270 271 274 283
93 88 83 78 74 63 48 102 193 206 221 217 226 239 250 252 256 263 258 251 254 267 274 275 265 269 298 267 14 305 297 298 284 276 268 43 57 338 307 290 287 295 292
94 92 91 83 73 64 64 15 1 304 248 217 228 249 269 271 240 247 251 252 258 251 259 266 273 265 247 343 186 215 275 301 279 276 284 35 123 253 278 287 313 305 287
104 102 98 88 70 51 14 354 350 307 262 223 242 253 261 269 259 245 242 236 239 256 263 263 269 281 312 126 162 193 238 278 275 291 345 295 229 227 232 237 261 266 270
123 123 110 85 60 46 23 355 334 309 286 277 267 252 253 249 244 260 259 272 282 273 265 265 284 301 348 345 340 293 233 234 246 262 222 214 223 236 251 238 240 255 273
131 129 106 72 53 50 38 344 322 297 288 284 266 259 252 253 252 258 322 299 326 324 299 293 292 305 322 355 359 333 331 322 319 293 263 280 300 287 292 298 301 287 278
157 156 145 115 50 27 10 338 304 286 275 270 262 263 269 262 249 218 198 114 219 186 228 283 302 324 356 5 2 319 317 311 295 282 279 279 281 287 286 287 286 284 300